TIMESTAMP,CO2_1_1_1,H2O_1_1_1,TAU_1_1_1,TAU_SSITC_TEST_1_1_1,H_1_1_1,H_SSITC_TEST_1_1_1,LE_1_1_1,LE_SSITC_TEST_1_1_1,FC_1_1_1,FC_SSITC_TEST_1_1_1,WD_0_0_1,WS_0_0_1,WS_MAX_0_0_1,U_SIGMA_0_0_1,V_SIGMA_0_0_1,W_SIGMA_0_0_1,USTAR_0_0_1,MO_LENGTH_0_0_1,ZL_0_0_1,FETCH_MAX_0_0_1,FETCH_70_0_0_1,FETCH_80_0_0_1,FETCH_90_0_0_1,PA_0_0_1,RH_0_0_1,TA_0_0_1,VPD_0_0_1,T_SONIC_0_0_1,T_SONIC_SIGMA_0_0_1
[yyyymmddHHMMSS],[mmolCO2 mol-1],[mmolH2O mol-1],[kg m-1 s-2],[#],[W m-2],[#],[W m-2],[#],[umolCO2 m-2 s-1],[#],[Decimal degrees],[m s-1],[m s-1],[m s-1],[m s-1],[m s-1],[m s-1],[m],[#],[m],[m],[m],[m],[kPa],[%],[deg C],[hPa],[deg C],[deg C]
20220619003000,403.69909897809157,8.2910797027129934,5.6418060308904852E-002,1,-4.1909169731498954,0,26.480389186579060,0,-2.2823157141034103,0,222.58961635327995,1.2215319682052743,4.1888268111173401,0.43547049899700763,0.40860857108798887,0.24004979398119247,0.22450378951590869,226.27792870041259,8.3967535451306058E-002,118.68416279829199,216.99250196756378,259.68460419686761,325.09430915833605,94.573438862847226,33.083793103448272,20.271724137931017,15.864002494036049,20.109897188822458,6.7395965839548752E-002
20220619010000,401.90238625495317,9.5993745011357667,0.11453602119046623,0,-12.466720869894298,0,26.460824668330073,0,-1.7450351193541762,0,229.41547881161898,2.1987188747193063,4.5802761856184260,0.62148787219246304,0.48945858648657986,0.39395080838112101,0.31939195884485616,219.03491889406956,8.6744159771113244E-002,105.86697048529629,193.55858658558336,231.64019259013784,289.98603369765397,94.552684970779623,41.006333333333330,19.169666666666672,13.061339934414208,19.090082829003507,0.35660833333599057
20220619013000,403.83963068231418,9.9845633320931508,4.4324255725872959E-002,1,6.0308532764616665,2,16.877041857624405,1,-3.0322025863882978,1,182.95725265026502,1.7406877197568333,3.2993898669199497,0.42605811587740627,0.64572411889964798,0.25404620506399522,0.19834728043279229,-108.40670767741065,-0.17526590749844478,123.72306946519203,451.00000000000000,645.00000000000000,1128.0000000000000,94.506048634114592,45.930000000000000,17.978999999999985,11.111305407747690,18.063889884100888,0.39372476723151550
20220619020000,405.53962331674160,10.222365591081140,3.8486740937668691E-002,0,-34.196419375499964,0,11.106895646475188,0,2.2033285004306000,0,167.15755511294955,2.0254306058405929,4.3527374514240114,0.47490817598758645,0.57623564794855386,0.30056341921497054,0.18447950732422896,15.376104698205692,1.2356835735007188,174.70745111541717,1519.0000000000000,2740.0000000000000,7169.0000000000000,94.451763411429397,50.959666666666671,16.698333333333323,9.2940454879698891,16.903770834902389,0.39009646997570130
20220619023000,407.36752100628075,10.768895638504114,0.10856180870759483,0,-61.119860918919237,0,-0.67514306321240669,2,6.7895119568572824,0,187.86541349046323,2.3402582392578055,5.2620636979766058,0.65336223181087150,0.72522667573624477,0.48579867365165980,0.30946314643635869,40.605586505924627,0.46791591096037422,87.292511644358243,159.59855180454275,190.99870447113986,239.10771326709011,94.429480231553811,56.566666666666670,15.874000000000024,7.8101220389551260,16.179475472344393,0.35165662727916008
20220619030000,409.10061089572019,11.002344356739318,0.15373061107337196,0,-60.823220147435194,0,16.709590208814220,0,7.4210089871560116,0,187.84190131945547,2.3071939398761567,4.9683409300250316,0.77701837976482635,0.68198215773981918,0.55608578450671053,0.36793625824029963,68.574689423822207,0.27707015751207437,89.982806681949015,164.51726915885300,196.88515288630794,246.47684817150096,94.417994646701402,59.909999999999997,15.310666666666691,6.9533360923057241,15.604485765245329,0.28568182882448351
20220619033000,410.55069334016213,11.080129481119608,8.5971207432891689E-002,0,-51.125163017253769,0,14.465894310944226,0,6.9748780197233247,0,177.81794539111149,2.2529155918252828,4.8925032857751818,0.64353066354641708,0.67243610525871078,0.47722082359308299,0.27490507006980019,34.029631925914266,0.55833692357780418,80.542589945401929,147.25754216174013,176.22966786654797,220.61863199577965,94.426207707899309,62.295666666666669,14.814666666666653,6.3341346506989318,15.123746157328242,0.29235660722897505
20220619040000,413.03143385567432,11.138814545545504,0.14769310812723518,0,-68.963634373850951,0,22.153831460973876,0,12.773271732536029,0,192.03492266890751,2.4590689922066429,5.6843512136742493,0.77716467059862804,0.77989044166127042,0.60464299067340799,0.36005173160037990,56.683431933659513,0.33519494765660973,82.708016325474773,151.21663221183510,180.96768749080374,226.55007033148613,94.437495622152625,64.263666666666666,14.416666666666686,5.8511927274285469,14.725623507912758,0.29369653872936335
20220619043000,416.26991934993049,11.199494987930057,0.19573342241326458,0,-79.869481259533018,0,31.941792209424403,0,16.485927046353446,0,178.31157174476837,2.6325033051272566,5.9036076034327341,0.88665313220133390,0.84507062037136149,0.65389501855847343,0.41417675126457842,74.485249654442242,0.25508406145037138,86.895452780377838,158.87260156575701,190.12992744559142,238.02010752393565,94.410866630766591,66.837000000000003,13.890333333333331,5.2477575956546527,14.190567238908329,0.24118913978682979
20220619050000,417.49355872105809,10.934114402202086,0.25510488328433739,0,-65.050684882495148,0,32.232442429668680,0,9.7872477151303841,0,176.21705998466373,2.3730322746079024,7.1406750655973328,0.99439946776350407,0.90705867216256775,0.71216259751444910,0.47268400581121106,135.94993378059650,0.13975733177379290,90.208673553013767,164.93022583570317,197.37935655789067,247.09553252398146,94.424471843098956,65.760666666666665,13.773333333333312,5.3770459752348732,14.036443818834130,0.21590618266079717
20220619053000,418.67038539046592,10.704369383840996,0.35699908798479402,0,-66.484923918589004,0,40.213436889446186,0,12.154598830211967,0,189.59184586177074,2.5457863865695018,6.4421812377713117,1.1158129222846254,1.0073115886907611,0.74412986895410671,0.55901122327323849,220.07031509948334,8.6336042148215233E-002,99.602979930410143,182.10601405393052,217.93438829758790,272.82799311328409,94.461624510416669,64.516000000000005,13.746666666666670,5.5628597913406193,13.980685124715194,0.19672640195268837
20220619060000,419.03301615461555,10.483619207509957,0.24762675201248027,0,-44.407974442670799,0,37.036837085402958,0,10.620961032193803,0,184.61870806427757,2.4366534251559884,6.6812859420566522,1.0078109455566751,0.94888073579681265,0.69780002723797740,0.46566450389778757,190.44262599929482,9.9767580394897276E-002,90.600088440669310,165.64585708571315,198.23578438938102,248.16767854158388,94.460903290364584,62.623666666666672,13.884000000000015,5.9120488423689528,14.088266995747915,0.15931386145709914
20220619063000,420.13428320022558,10.557342144785729,0.25364892843957115,0,-28.903308965107893,0,23.109484274450629,0,10.807625066922656,0,186.80028681807565,2.5019515034221986,6.6426345473034063,1.0170209502467209,0.90360562577367987,0.69533727956481495,0.47135928572349017,303.48778911999347,6.2605484244006110E-002,91.744521972982540,167.73824658113620,200.73984021166854,251.30245928901445,94.467197610460062,62.692666666666668,13.975999999999999,5.9364876984378325,14.160965692308253,0.10810168969705990
20220619070000,420.29779640752190,10.348786177577798,0.32043443831995438,0,-31.802667655231748,0,43.392796082181569,0,9.6220365828321839,0,200.87523845176531,2.8912340973016475,7.7372693523693270,1.1393423555413489,1.0193961037604964,0.78767695294415918,0.52990155299816233,391.90130748478140,4.8481593802127902E-002,91.186919170579927,166.71877082005167,199.51978810339290,249.77509882610323,94.478103483926901,60.767666666666663,14.151000000000010,6.3140590272304591,14.313826090031171,0.14865957356434775
20220619073000,421.15758739104234,10.185157123803521,0.28202536906710501,0,-39.492697133061377,0,21.992421609990540,1,8.7179180925117290,0,194.83590633331761,2.6275307886780275,6.7912935992999959,1.0357795291143703,1.0384002560515446,0.75920593610578913,0.49699736375812598,260.32047527666884,7.2986959553630132E-002,89.217590854918882,163.11821057397131,195.21083708475302,244.38080346949488,94.454329799479169,60.601333333333329,13.943666666666672,6.2561251565381202,14.094869763692259,0.13378441960645035
20220619080000,422.36284930789560,10.168883040526696,0.15619284109788031,0,-30.549912736289254,0,15.546358875848126,0,5.6338326621237851,0,188.38188983201564,1.9046202117170894,6.0425226478337724,0.81483094060311889,0.73570015274329492,0.53491648971859740,0.36963455666239736,138.49896149041800,0.13718514417391142,93.163149908078850,170.33195089466619,203.84384183363903,255.18830098548966,94.508789851996525,61.279333333333334,13.756666666666661,6.0742229443627505,13.901564876980331,0.18404690784753031
20220619083000,424.93879992293773,10.088760278111883,0.16032949613655970,0,-20.988874421363956,0,22.442184509134020,0,6.2239119599891302,0,177.29912512889263,1.9737274378822658,5.1350989276924963,0.83574961849828000,0.64969744707041832,0.51553746052827887,0.37426525505961139,209.27686281292483,9.0788822732804128E-002,96.914849672001310,177.19125460638574,212.05267648595461,265.46478787443300,94.521461345337073,62.037333333333336,13.448333333333323,5.8369812682559656,13.558319944905406,0.13652712113955967
20220619090000,426.10059319504654,9.8941739412851479,0.24012461943867919,0,-33.758445784335819,0,51.273590287500937,0,11.090288004626425,0,182.48258741012771,2.5676275628091685,6.7437636988904277,1.0040904074141370,0.88539726031748101,0.70621508503093411,0.45797874419221962,238.30088198124690,7.9731135873409006E-002,88.548572710220526,161.89503203306930,193.74700477545173,242.54825912291057,94.465487432942695,61.639333333333333,13.239333333333320,5.8183173231443162,13.316694947984502,0.12714279561799272
20220619093000,427.86070917760833,9.6793236697735772,0.31415406178227823,0,-51.693232127181638,0,28.320184590473563,0,8.9653986301702862,0,191.67346147019592,2.6292772646417868,7.2051316198713167,1.0832181017760836,0.93420075290379734,0.74206963527606973,0.52352190730850612,232.40791633188715,8.1752809025951140E-002,94.721171097020942,173.18051053342438,207.25284018894934,259.45596239987736,94.443229059461814,61.848999999999997,12.848000000000013,5.6403436240815168,12.897695561726891,0.21292404092794323
20220619100000,429.71863861476942,9.7186778305672927,0.20081819561352188,0,-52.694060683206068,0,21.231948301107142,0,8.6733896915156325,0,183.84297431956762,2.1780230196440158,6.5128409760871371,0.91847196125810826,0.77880913353216474,0.62989910049051079,0.41829949636275782,116.28753775148779,0.16338810131661691,90.246004359842715,164.99847845663666,197.46103751318543,247.19778738739575,94.429053239583325,63.794666666666664,12.435333333333347,5.2097571350408964,12.496545770433215,0.17595080686433218
20220619103000,430.19020414543775,9.8865807037924398,0.26658020470229959,0,-47.533206607094449,0,27.890563872098909,0,13.170078392751639,0,186.81768304068146,2.6878282564188156,7.2720368241353759,1.0619110202342761,0.94599765137573177,0.75791895337879434,0.48180574030505602,196.97166060534414,9.6460576824138833E-002,87.147365276745759,159.33317795248749,190.68111974765725,238.71013487926413,94.411364145399304,65.915333333333336,12.195666666666682,4.8279133443443323,12.265084087795685,0.14522084196352691
20220619110000,429.33936873100208,10.041222438074676,0.28066342951094386,0,-45.542366119004804,1,26.371677746346204,0,11.055998270857362,1,187.66825890499643,2.7622641008314992,7.2997151013889070,1.1522955813471816,1.0328931632316296,0.82162346542391951,0.49446309033962199,222.23288825525515,8.5495896440749730E-002,83.411078293456711,152.50205371942008,182.50600873414899,228.47586598431502,94.418995993272574,66.445666666666668,12.310999999999979,4.7889951430853763,12.369204254998067,0.14233843011404335
20220619113000,426.29712398454063,10.041585200791477,0.36114647351582552,0,-27.299999603992138,0,35.736532689982461,0,2.6419759214476590,0,191.14166166909996,3.3123392643300900,8.2707674951497179,1.2921407277013324,1.1530256256441374,0.89468952920285771,0.56122306129888866,542.09125099061066,3.5049449636531935E-002,86.223455312065610,157.64397587108229,188.65957628444670,236.17940234839847,94.420023861181718,65.000000000000000,12.646666666666647,5.1066671342463286,12.642093585489647,0.12661050904257404
20220619120000,423.20531705938447,10.090318766758809,0.41325450512359635,0,-15.771707471381584,0,64.461539035515642,0,0.53241515562564123,1,191.78818181664079,3.0838231132107277,8.1184332363242611,1.3130567176417309,1.1540126103613773,0.94916429599349428,0.60098742331004629,1152.1579458164831,1.6490794572905147E-002,86.870854240290811,158.82762758917593,190.07610508213776,237.95272831168566,94.407138607204871,62.934666666666665,13.211999999999989,5.6118257084517049,13.150503271314790,0.20811044680099677
20220619123000,418.82998492840312,10.075970122742095,0.35912425177982088,1,19.672225708704964,1,68.474544482652590,1,-3.3802507062954348,1,185.62400732626705,3.6665883628368592,10.006422376242286,1.3890746574386623,1.3205540007845888,0.97674474388171106,0.56138065020728112,-752.86240468310848,-2.5237015265754167E-002,80.396285706425346,146.99005135154715,175.90954968485318,220.21788201890308,94.405032864366319,58.295000000000002,14.367999999999995,6.8069932036623291,14.240533630371147,0.43544308068434123
20220619130000,414.62530124276759,10.136245141009082,0.57845812506150696,0,17.318057938676677,0,127.99786091533078,0,-4.8152225249241134,0,189.28833589232306,3.4575303977482896,10.641765053114254,1.6069489675993187,1.3616462961031373,1.0643819813906414,0.71331895933059675,-1754.6656288155232,-1.0828273881916659E-002,90.908376627326760,166.20950621439709,198.91032843841955,249.01212764667139,94.415591228081595,56.041000000000004,15.073333333333323,7.5089502957892336,15.028834949069505,0.24631087213010353
20220619133000,411.87497777547247,9.8067825356084377,0.56959382437258965,0,-2.3404357227086092,0,140.06814752556690,0,-6.4514063332547327,0,190.56439086155970,3.6165766571088125,9.5496306434289320,1.5429710981246283,1.3217858757341692,1.0614607194017995,0.70812213663630263,12702.516763053642,1.4957665755862750E-003,90.577075621721804,165.60378231311495,198.18543163262785,248.10464286520440,94.428002605468748,53.157000000000004,15.383333333333326,8.1625915609307444,15.337295262654607,9.8678327348347653E-002
20220619140000,410.02453446621320,9.5130884011329844,0.53421680617991496,0,37.094480500388350,1,112.48368259305300,0,-12.301996824067592,0,189.92542917715463,3.5919261204314759,9.5477909957793958,1.5377015013431472,1.3045391032099112,1.0285898546327195,0.68618622243361105,-729.19467098584573,-2.6056142146942275E-002,90.576327067789450,165.60241371778756,198.18379377356507,248.10259246001323,94.422728906684029,50.390333333333331,15.742000000000019,8.8457291468770460,15.633787455240963,0.15285948633676458
20220619143000,408.25017250100620,9.3382037961653221,0.65019093864153366,0,65.839297720156480,0,134.38525743738850,0,-15.453652164207030,0,182.27447751952025,3.5482916861141005,10.996085653733088,1.6775616654505392,1.4682344083851235,1.0352977332373248,0.75790227539701283,-553.34457394956416,-3.4336651870253629E-002,97.564822334901564,178.37961193231598,213.47483669439706,267.24516369573342,94.368528533854175,47.785000000000004,16.273666666666657,9.6318719934616812,16.072797835455958,0.18600970708589468
20220619150000,406.97228993546111,9.2303094444758589,0.92417337671099076,0,89.224431262710752,0,231.89915247626962,0,-16.189137917349115,0,172.98806035741180,3.4568138391101564,11.100966231228107,1.7590696522167057,1.3974936215192402,1.1097686319267441,0.90481078266312487,-694.43542500599847,-2.7360355356059032E-002,106.34453036122029,194.43171834868295,232.68510830960412,291.29414418421578,94.308577651041659,45.399333333333331,16.886333333333312,10.472066828235915,16.600368881225677,0.30032871012279044
20220619153000,405.10317931209323,9.6413762725459566,0.49136706042464545,0,38.148580190692087,0,124.11660604887351,0,-12.905613946021752,0,179.23152446138243,2.7638035456368200,8.5366613150547241,1.3871439336303737,1.1583153681519585,0.94548307701884893,0.66031365440685841,-631.25947041479935,-3.0098558343235843E-002,93.957643139658956,171.78453791261452,205.58221749822212,257.36454103438712,94.296270503255215,46.210333333333331,17.292666666666662,10.585461079618645,17.155765324062770,0.15144074158276008
20220619160000,404.66812499504141,10.017888712533244,0.57127925036700156,0,34.572186356771525,0,144.71719899152063,0,-10.653339843649382,0,176.93264681423636,2.8511373775555073,9.5517008161440060,1.4673826009736801,1.1431681417826745,0.94348983915016615,0.71243145383901119,-874.59377452798810,-2.1724371420610858E-002,100.01372115257169,182.85698000723573,218.83310274431352,273.95307695524872,94.247532456163199,47.472333333333331,17.464333333333343,10.449853492315533,17.449294304741784,0.28622088623004338
20220619163000,403.00001521619055,10.277057818855237,0.78225275894565949,0,84.748950890172793,0,146.18980551260188,0,-13.743232774946136,0,181.75894178026167,3.7922666139889105,10.776953690759184,1.8497405456006362,1.6343214744221066,1.1708565030526628,0.83550768557283739,-575.20748265302052,-3.3031559172990235E-002,95.589969104647778,174.76895038027897,209.15379699243658,261.83573474210300,94.178983395668880,45.572333333333333,18.508333333333326,11.562659280840958,18.301896466026164,0.28455299736254641
20220619170000,401.22666751149563,10.797664896987675,1.0632268296126672,0,169.25629907618705,0,244.02587372711838,1,-20.216571886554515,0,189.56047606788002,3.9595680160086340,12.214368685600157,2.1303504241247757,1.5616538987308886,1.2327425715863092,0.97585545280596930,-458.79386796234360,-4.1412933621770773E-002,103.86408009793155,189.89666416835490,227.25780672475085,284.49980662701415,94.134012399522575,45.319666666666663,19.381333333333316,12.266971081813081,19.216047108120506,0.33993990985689543
20220619173000,399.55026601883901,11.477344661194422,0.81336981593078161,0,187.87575269203825,0,211.22871322948146,0,-17.059996072322622,0,191.21923484022227,4.1761524143471496,11.466834303088721,1.9473507104895209,1.6361632504429324,1.2243360241961172,0.85538156721369429,-278.29509163185372,-6.8272853425436611E-002,93.985814004468310,171.83604323812253,205.64385621821154,257.44170539749729,94.082598848307299,45.148666666666664,20.418666666666638,13.122285063778302,20.258408945719395,0.44041388464589909
20220619180000,399.15871372144045,12.098133438474116,0.91496635708785923,0,172.51400224318277,0,193.69854711137103,0,-21.135806297103873,0,196.18665411154575,4.3005117432237370,12.467629063836597,2.0311866686654181,1.6568811687979914,1.2419144678285836,0.90844761925277895,-363.00039387106716,-5.2341541003254513E-002,97.503782442788406,178.26801154185804,213.34127953015633,267.07796597457366,94.047295653645847,45.826666666666668,21.026000000000010,13.453907939937594,20.940725784301719,0.41150237238015624
20220619183000,398.39220153596386,12.814426193986380,0.97306003252916762,0,365.80760198636688,0,308.03421625705136,0,-19.964113847441002,0,177.84774880518120,3.9647736279731722,12.787854727512865,2.0286849213444551,1.6886763124274353,1.2587196166480210,0.93893434843662693,-188.97259290014875,-0.10054368047984298,99.042109280203945,181.08056362483444,216.70718603765394,271.29168150896453,94.001871218595397,45.383333333333333,22.117333333333363,14.500432039710800,21.994029985506188,0.69761806972284035
20220619190000,398.22314796508937,13.561918130665093,1.0337445587771343,0,272.94573065535144,0,202.28560539203733,0,-15.216731183804326,0,182.74155701679459,4.2900577821859933,12.541922143585619,2.0310255659176679,1.7123025092504853,1.3896152104624671,0.96922608603909211,-278.49095401144081,-6.8224837203220090E-002,93.859735918334849,171.60553228612736,205.36799348199193,257.09635798681342,93.942743258680537,46.228333333333332,22.736333333333334,14.823340929175000,22.610062927246190,0.44848526717093662
20220619193000,396.46200322743829,14.150072168715786,0.85279447768636596,0,72.100566014582398,0,195.57321555008446,0,-15.838225056485731,0,186.64593353151719,3.7585921508919449,11.705367485892152,1.8957254113573181,1.6272846566268575,1.2036073847135935,0.87989828500776612,-788.54043776194362,-2.4095149836483091E-002,97.456991786026236,178.18246329818223,213.23890013180269,266.94979911661630,93.886892722254245,49.767666666666663,22.211000000000013,13.412698813710120,22.422609530260502,0.16090035428581342
20220619200000,395.51930543565396,14.632208964860483,0.57400340582157305,0,49.175649250938712,0,138.36446108445682,0,-12.743445267838524,0,189.35823719471341,3.2044959224169163,9.3854586257253292,1.5932224196389266,1.3806971979054796,1.0456198692520435,0.72189938341508941,-638.58049305798374,-2.9753492639611183E-002,93.097319056829917,170.21159110291001,203.69980190322661,255.00798008501326,93.897496364149305,51.495333333333335,22.202666666666687,12.944820638406918,22.542761454264337,0.19936561965451033
20220619203000,394.98701763305229,15.037448826036171,0.91579204931272806,0,133.99500106438245,0,196.11999145406534,0,-13.704585061939900,0,189.99392618810455,3.8525397049936712,11.223018235693361,1.7873160272926618,1.6023863839481935,1.2144499672815958,0.91333319273197655,-474.60290369287833,-4.0033467667730804E-002,99.690687441765633,182.26637135756437,218.12629503421081,273.06823757505418,93.884238978732640,50.158000000000001,23.084333333333348,14.032614083495451,23.299320735507536,0.34907554915225053
20220619210000,395.34788608072904,15.224284825780581,0.57693496735628791,0,22.120686845936330,0,135.00279954551627,0,-7.0291221632529055,0,179.80811453233181,3.9655218634004132,11.782918475059720,1.7416642458056484,1.6683349811245074,1.1762617974826126,0.72473657865007490,-1436.1087856529305,-1.3230195504556851E-002,84.995483969271291,155.39885261508167,185.97273715949456,232.81579859588751,93.854935354383699,51.598666666666666,22.815333333333342,13.406929964453457,23.111086218092169,0.24831933373477907
20220619213000,395.64505716468938,15.577910073603373,0.44958816853327183,0,-16.043203027229119,0,106.38523153996388,0,-3.1226894461076320,0,190.68160489216791,3.4498500991537675,10.399400424026869,1.5855850237975269,1.2504877126240341,1.0423783150960035,0.63937784399817787,1359.5945613462695,1.3974754342343215E-002,84.691665128328566,154.84337487578892,185.30797217655532,231.98359172113013,93.843050691840276,54.220333333333336,22.375000000000000,12.346339989893382,22.921498427497056,7.1714694126016887E-002
20220619220000,396.07723167708212,15.549785995194854,0.65471389806194513,0,-0.78369836951695904,1,111.16862883245300,0,-4.1614127793158024,0,192.69084956172370,4.0931403165846749,11.866989895093077,1.7578031918347121,1.5342518374982266,1.1844813024228618,0.77176451049943207,48939.582304475385,3.8823379982674073E-004,88.883300959999232,162.50702202976456,194.47940049706980,243.46513165713850,93.821349073133689,53.837666666666664,22.457999999999970,12.512500059800903,22.964306103176568,7.5183933929159411E-002
20220619223000,395.13951326631854,15.757168479784520,0.67283023729185676,0,27.132125114259225,0,95.892834384434749,0,-6.8699008428028776,0,193.66278066866650,3.8871584999075108,11.130025759624964,1.8256636556465202,1.5605884386339208,1.1542470271118435,0.78316791349085324,-1476.6425211901480,-1.2867027548879150E-002,91.812073762353691,167.86175279664488,200.88764560770485,251.48749410562559,93.766928272352445,53.189000000000000,22.866666666666674,13.006799348440991,23.358583430819976,0.22541289670474121